Time,TemperatureF,DewpointF,PressureIn,WindDirection,WindDirectionDegrees,WindSpeedMPH,WindSpeedGustMPH,Humidity,HourlyPrecipIn,Conditions,Clouds,dailyrainin,SolarRadiationWatts/m^2,SoftwareType,DateUTC
2013-05-07 00:22:00,33.0,31.0,-100.00,SE,138,1.0,2.0,91,0.00,,,0.03,0.000000,,2013-05-07 06:22:00,
2013-05-07 00:32:00,33.0,31.0,-100.00,SE,138,1.0,2.0,91,0.00,,,0.03,0.000000,,2013-05-07 06:32:00,
2013-05-07 00:42:00,33.0,31.0,-100.00,SE,138,1.0,2.0,91,0.00,,,0.03,0.000000,,2013-05-07 06:42:00,
2013-05-07 00:52:00,33.0,31.0,-100.00,SE,138,1.0,2.0,91,0.00,,,0.03,0.000000,,2013-05-07 06:52:00,
2013-05-07 01:22:00,33.0,30.0,-100.00,ESE,106,5.0,7.0,90,0.00,,,0.03,0.000000,,2013-05-07 07:22:00,
2013-05-07 01:32:00,33.0,30.0,-100.00,ESE,106,5.0,7.0,90,0.00,,,0.03,0.000000,,2013-05-07 07:32:00,
2013-05-07 01:42:00,33.0,30.0,-100.00,ESE,106,5.0,7.0,90,0.00,,,0.03,0.000000,,2013-05-07 07:42:00,
2013-05-07 01:52:00,33.0,30.0,-100.00,ESE,106,5.0,7.0,90,0.00,,,0.03,0.000000,,2013-05-07 07:52:00,
2013-05-07 02:21:00,33.0,31.0,-100.00,NW,311,2.0,8.0,92,0.00,,,0.03,0.000000,,2013-05-07 08:21:00,
2013-05-07 02:32:00,33.0,31.0,-100.00,NW,311,2.0,8.0,92,0.00,,,0.03,0.000000,,2013-05-07 08:32:00,
2013-05-07 02:42:00,33.0,31.0,-100.00,NW,311,2.0,8.0,92,0.00,,,0.03,0.000000,,2013-05-07 08:42:00,
2013-05-07 02:52:00,33.0,31.0,-100.00,NW,311,2.0,8.0,92,0.00,,,0.03,0.000000,,2013-05-07 08:52:00,
2013-05-07 03:22:00,32.0,30.0,-100.00,NE,52,1.0,3.0,94,0.00,,,0.03,0.000000,,2013-05-07 09:22:00,
2013-05-07 03:33:00,32.0,30.0,-100.00,NE,52,1.0,3.0,94,0.00,,,0.03,0.000000,,2013-05-07 09:33:00,
2013-05-07 03:42:00,32.0,30.0,-100.00,NE,52,1.0,3.0,94,0.00,,,0.03,0.000000,,2013-05-07 09:42:00,
2013-05-07 03:52:00,32.0,30.0,-100.00,NE,52,1.0,3.0,94,0.00,,,0.03,0.000000,,2013-05-07 09:52:00,
2013-05-07 04:23:00,33.0,30.0,-100.00,NNE,17,3.0,5.0,88,0.00,,,0.03,0.000000,,2013-05-07 10:23:00,
2013-05-07 04:32:00,33.0,30.0,-100.00,NNE,17,3.0,5.0,88,0.00,,,0.03,0.000000,,2013-05-07 10:32:00,
2013-05-07 04:42:00,33.0,30.0,-100.00,NNE,17,3.0,5.0,88,0.00,,,0.03,0.000000,,2013-05-07 10:42:00,
2013-05-07 04:52:00,33.0,30.0,-100.00,NNE,17,3.0,5.0,88,0.00,,,0.03,0.000000,,2013-05-07 10:52:00,
2013-05-07 05:22:00,32.0,30.0,-100.00,East,79,2.0,6.0,92,0.00,,,0.03,0.000000,,2013-05-07 11:22:00,
2013-05-07 05:32:00,32.0,30.0,-100.00,East,79,2.0,6.0,92,0.00,,,0.03,0.000000,,2013-05-07 11:32:00,
2013-05-07 05:42:00,32.0,30.0,-100.00,East,79,2.0,6.0,92,0.00,,,0.03,0.000000,,2013-05-07 11:42:00,
2013-05-07 05:52:00,32.0,30.0,-100.00,East,79,2.0,6.0,92,0.00,,,0.03,0.000000,,2013-05-07 11:52:00,
2013-05-07 06:21:00,31.0,29.0,-100.00,SSE,166,1.0,4.0,94,0.00,,,0.03,0.000000,,2013-05-07 12:21:00,
2013-05-07 06:32:00,31.0,29.0,-100.00,SSE,166,1.0,4.0,94,0.00,,,0.03,0.000000,,2013-05-07 12:32:00,
2013-05-07 06:42:00,31.0,29.0,-100.00,SSE,166,1.0,4.0,94,0.00,,,0.03,0.000000,,2013-05-07 12:42:00,
2013-05-07 06:52:00,31.0,29.0,-100.00,SSE,166,1.0,4.0,94,0.00,,,0.03,0.000000,,2013-05-07 12:52:00,
2013-05-07 07:21:00,32.0,30.0,-100.00,East,88,2.0,4.0,94,0.00,,,0.03,17.000000,,2013-05-07 13:21:00,
2013-05-07 07:32:00,32.0,30.0,-100.00,East,88,2.0,4.0,94,0.00,,,0.03,17.000000,,2013-05-07 13:32:00,
2013-05-07 07:42:00,32.0,30.0,-100.00,East,88,2.0,4.0,94,0.00,,,0.03,17.000000,,2013-05-07 13:42:00,
2013-05-07 07:52:00,32.0,30.0,-100.00,East,88,2.0,4.0,94,0.00,,,0.03,17.000000,,2013-05-07 13:52:00,
2013-05-07 08:21:00,34.0,32.0,-100.00,SSE,161,1.0,4.0,91,0.00,,,0.03,56.000000,,2013-05-07 14:21:00,
2013-05-07 08:32:00,34.0,32.0,-100.00,SSE,161,1.0,4.0,91,0.00,,,0.03,56.000000,,2013-05-07 14:32:00,
2013-05-07 08:42:00,34.0,32.0,-100.00,SSE,161,1.0,4.0,91,0.00,,,0.03,56.000000,,2013-05-07 14:42:00,
2013-05-07 08:52:00,34.0,32.0,-100.00,SSE,161,1.0,4.0,91,0.00,,,0.03,56.000000,,2013-05-07 14:52:00,
2013-05-07 09:21:00,37.0,29.0,-100.00,NNW,327,3.0,5.0,72,0.03,,,-99.99,138.000000,,2013-05-07 15:21:00,
2013-05-07 09:33:00,37.0,29.0,-100.00,NNW,327,3.0,5.0,72,0.03,,,-99.99,138.000000,,2013-05-07 15:33:00,
2013-05-07 09:42:00,37.0,29.0,-100.00,NNW,327,3.0,5.0,72,0.03,,,-99.99,138.000000,,2013-05-07 15:42:00,
2013-05-07 09:53:00,37.0,29.0,-100.00,NNW,327,3.0,5.0,72,0.03,,,-99.99,138.000000,,2013-05-07 15:53:00,
2013-05-07 12:21:00,46.0,23.0,-100.00,NW,315,8.0,15.0,40,-99.99,,,0.06,830.000000,,2013-05-07 18:21:00,
2013-05-07 12:31:00,46.0,23.0,-100.00,NW,315,8.0,15.0,40,-99.99,,,0.06,830.000000,,2013-05-07 18:31:00,
2013-05-07 12:42:00,46.0,23.0,-100.00,NW,315,8.0,15.0,40,-99.99,,,0.06,830.000000,,2013-05-07 18:42:00,
2013-05-07 12:51:00,46.0,23.0,-100.00,NW,315,8.0,15.0,40,-99.99,,,0.06,830.000000,,2013-05-07 18:51:00,
2013-05-07 13:21:00,47.0,22.0,-100.00,NW,313,9.0,15.0,37,0.00,,,0.06,863.000000,,2013-05-07 19:21:00,
2013-05-07 13:32:00,47.0,22.0,-100.00,NW,313,9.0,15.0,37,0.00,,,0.06,863.000000,,2013-05-07 19:32:00,
2013-05-07 13:42:00,47.0,22.0,-100.00,NW,313,9.0,15.0,37,0.00,,,0.06,863.000000,,2013-05-07 19:42:00,
2013-05-07 13:52:00,47.0,22.0,-100.00,NW,313,9.0,15.0,37,0.00,,,0.06,863.000000,,2013-05-07 19:52:00,
2013-05-07 14:22:00,51.0,26.0,-100.00,WSW,242,6.0,16.0,38,0.00,,,0.06,757.000000,,2013-05-07 20:22:00,
2013-05-07 14:32:00,51.0,26.0,-100.00,WSW,242,6.0,16.0,38,0.00,,,0.06,757.000000,,2013-05-07 20:32:00,
2013-05-07 14:42:00,51.0,26.0,-100.00,WSW,242,6.0,16.0,38,0.00,,,0.06,757.000000,,2013-05-07 20:42:00,
2013-05-07 14:51:00,51.0,26.0,-100.00,WSW,242,6.0,16.0,38,0.00,,,0.06,757.000000,,2013-05-07 20:51:00,
2013-05-07 15:22:00,51.0,23.0,-100.00,WSW,250,5.0,13.0,33,0.00,,,0.06,794.000000,,2013-05-07 21:22:00,
2013-05-07 15:32:00,51.0,23.0,-100.00,WSW,250,5.0,13.0,33,0.00,,,0.06,794.000000,,2013-05-07 21:32:00,
2013-05-07 15:42:00,51.0,23.0,-100.00,WSW,250,5.0,13.0,33,0.00,,,0.06,794.000000,,2013-05-07 21:42:00,
2013-05-07 15:52:00,51.0,23.0,-100.00,WSW,250,5.0,13.0,33,0.00,,,0.06,794.000000,,2013-05-07 21:52:00,
2013-05-07 16:22:00,43.0,28.0,-100.00,NNW,334,4.0,15.0,55,0.01,,,0.06,356.000000,,2013-05-07 22:22:00,
2013-05-07 16:33:00,43.0,28.0,-100.00,NNW,334,4.0,15.0,55,0.01,,,0.06,356.000000,,2013-05-07 22:33:00,
2013-05-07 16:42:00,43.0,28.0,-100.00,NNW,334,4.0,15.0,55,0.01,,,0.06,356.000000,,2013-05-07 22:42:00,
2013-05-07 16:52:00,43.0,28.0,-100.00,NNW,334,4.0,15.0,55,0.01,,,0.06,356.000000,,2013-05-07 22:52:00,
2013-05-07 17:21:00,46.0,22.0,-100.00,NNW,337,3.0,14.0,38,0.00,,,0.05,279.000000,,2013-05-07 23:21:00,
2013-05-07 17:32:00,46.0,22.0,-100.00,NNW,337,3.0,14.0,38,0.00,,,0.05,279.000000,,2013-05-07 23:32:00,
2013-05-07 17:42:00,46.0,22.0,-100.00,NNW,337,3.0,14.0,38,0.00,,,0.05,279.000000,,2013-05-07 23:42:00,
2013-05-07 17:52:00,46.0,22.0,-100.00,NNW,337,3.0,14.0,38,0.00,,,0.05,279.000000,,2013-05-07 23:52:00,
2013-05-07 18:21:00,44.0,24.0,-100.00,West,267,7.0,14.0,45,0.00,,,0.05,162.000000,,2013-05-08 00:21:00,
2013-05-07 18:32:00,44.0,24.0,-100.00,West,267,7.0,14.0,45,0.00,,,0.05,162.000000,,2013-05-08 00:32:00,
2013-05-07 18:42:00,44.0,24.0,-100.00,West,267,7.0,14.0,45,0.00,,,0.05,162.000000,,2013-05-08 00:42:00,
2013-05-07 18:51:00,44.0,24.0,-100.00,West,267,7.0,14.0,45,0.00,,,0.05,162.000000,,2013-05-08 00:51:00,
2013-05-07 19:22:00,40.0,26.0,-100.00,West,280,4.0,14.0,57,0.00,,,0.05,77.000000,,2013-05-08 01:22:00,
2013-05-07 19:32:00,40.0,26.0,-100.00,West,280,4.0,14.0,57,0.00,,,0.05,77.000000,,2013-05-08 01:32:00,
2013-05-07 19:42:00,40.0,26.0,-100.00,West,280,4.0,14.0,57,0.00,,,0.05,77.000000,,2013-05-08 01:42:00,
2013-05-07 19:52:00,40.0,26.0,-100.00,West,280,4.0,14.0,57,0.00,,,0.05,77.000000,,2013-05-08 01:52:00,
2013-05-07 20:22:00,36.0,32.0,-100.00,WSW,239,3.0,8.0,85,0.00,,,0.04,15.000000,,2013-05-08 02:22:00,
2013-05-07 20:32:00,36.0,32.0,-100.00,WSW,239,3.0,8.0,85,0.00,,,0.04,15.000000,,2013-05-08 02:32:00,
2013-05-07 20:42:00,36.0,32.0,-100.00,WSW,239,3.0,8.0,85,0.00,,,0.04,15.000000,,2013-05-08 02:42:00,
2013-05-07 20:52:00,36.0,32.0,-100.00,WSW,239,3.0,8.0,85,0.00,,,0.04,15.000000,,2013-05-08 02:52:00,
2013-05-07 21:21:00,32.0,29.0,-100.00,ESE,102,2.0,4.0,87,0.01,,,0.05,1.000000,,2013-05-08 03:21:00,
2013-05-07 21:32:00,32.0,29.0,-100.00,ESE,102,2.0,4.0,87,0.01,,,0.05,1.000000,,2013-05-08 03:32:00,
2013-05-07 21:43:00,32.0,29.0,-100.00,ESE,102,2.0,4.0,87,0.01,,,0.05,1.000000,,2013-05-08 03:43:00,
2013-05-07 21:52:00,32.0,29.0,-100.00,ESE,102,2.0,4.0,87,0.01,,,0.05,1.000000,,2013-05-08 03:52:00,
2013-05-07 22:23:00,31.0,28.0,-100.00,ESE,107,3.0,4.0,90,0.00,,,0.05,0.000000,,2013-05-08 04:23:00,
2013-05-07 22:33:00,31.0,28.0,-100.00,ESE,107,3.0,4.0,90,0.00,,,0.05,0.000000,,2013-05-08 04:33:00,
2013-05-07 22:43:00,31.0,28.0,-100.00,ESE,107,3.0,4.0,90,0.00,,,0.05,0.000000,,2013-05-08 04:43:00,
2013-05-07 22:52:00,31.0,28.0,-100.00,ESE,107,3.0,4.0,90,0.00,,,0.05,0.000000,,2013-05-08 04:52:00,
2013-05-07 23:22:00,31.0,29.0,-100.00,NNE,13,2.0,5.0,91,0.00,,,0.05,0.000000,,2013-05-08 05:22:00,
2013-05-07 23:32:00,31.0,29.0,-100.00,NNE,13,2.0,5.0,91,0.00,,,0.05,0.000000,,2013-05-08 05:32:00,
2013-05-07 23:42:00,31.0,29.0,-100.00,NNE,13,2.0,5.0,91,0.00,,,0.05,0.000000,,2013-05-08 05:42:00,
2013-05-07 23:52:00,31.0,29.0,-100.00,NNE,13,2.0,5.0,91,0.00,,,0.05,0.000000,,2013-05-08 05:52:00,